Weather History for Dhahran, Saudi Arabia

Change the Weather History Date:

Monday, October 7, 2013

  Actual Average Record
Temperature  
Mean Temperature 90 °F -  
Max Temperature 104 °F 92 °F - ()
Min Temperature 75 °F 69 °F - ()
Cooling Degree Days 24    
Growing Degree Days 40 (Base 50)    
Moisture  
Dew Point 62 °F    
Average Humidity 46    
Maximum Humidity 74    
Minimum Humidity 9    
Precipitation  
Precipitation 0.00 in 0.00 in - ()
Sea Level Pressure  
Sea Level Pressure 29.73 in    
Wind  
Wind Speed 9 mph ()    
Max Wind Speed 21 mph    
Max Gust Speed -    
Visibility 6.0 miles    
Events      
T = Trace of Precipitation, MM = Missing Value Source: Averaged Metar Reports

Daily Weather History Graph

Daily Weather History Graph

Search for Another Location

Airport:

Trip Planner

Search our weather history database for the weather conditions in past years. The results will help you decide how hot, cold, wet, or windy it might be!

Date:

Astronomy

Oct. 07, 2013 Rise Set
Actual Time 5:34 AM AST 5:19 PM AST
Civil Twilight 5:11 AM AST 5:42 PM AST
Nautical Twilight 4:44 AM AST 6:09 PM AST
Astronomical Twilight 4:17 AM AST 6:36 PM AST
Moon 7:43 AM AST (10/7) 7:03 PM AST (10/7)
Length of Visible Light 12h 31m
Length of Day
11h 45m
Waxing Crescent, 7% of the Moon is Illuminated
Oct 7
Waxing Crescent
Oct 12
First Quarter
Oct 19
Full
Oct 27
Last Quarter
Nov 3
New

Hourly Weather History & Observations

Time (AST) Temp. Heat Index Dew Point Humidity Pressure Visibility Wind Dir Wind Speed Gust Speed Precip Events Conditions
12:00 AM 79 °F - 61 °F 44% 29.68 in 6 mi West 4.6 mph - -  
12:00 AM 78.8 °F - 60.8 °F 54% 29.68 in - West 4.6 mph - N/A   Clear
1:00 AM 77.0 °F - 64.4 °F 65% 29.65 in - West 6.9 mph - N/A   Clear
2:00 AM 77.0 °F - 66.2 °F 69% 29.68 in - West 3.5 mph - N/A   Clear
3:00 AM 79 °F - 70 °F 67% 29.66 in 6 mi 2.3 mph - -  
3:00 AM 78.8 °F - 69.8 °F 74% 29.65 in - Variable 2.3 mph - N/A   Clear
4:00 AM 77.0 °F - 64.4 °F 65% 29.65 in - NE 6.9 mph - N/A   Clear
5:00 AM 75.2 °F - 64.4 °F 69% 29.68 in - West 9.2 mph - N/A   Clear
6:00 AM 75.2 °F - 62.6 °F 65% 29.71 in - West 6.9 mph - N/A   Clear
7:00 AM 77.0 °F - 60.8 °F 57% 29.74 in - WNW 10.4 mph - N/A   Clear
8:00 AM 84.2 °F 82.8 °F 53.6 °F 35% 29.77 in - WNW 9.2 mph - N/A   Clear
9:00 AM 90 °F - 54 °F 19% 29.78 in 6 mi WNW 20.7 mph - -  
9:00 AM 89.6 °F 87.3 °F 53.6 °F 29% 29.77 in - WNW 20.7 mph - N/A   Clear
10:00 AM 96.8 °F - 50.0 °F 20% 29.74 in - WNW 13.8 mph - N/A   Clear
11:00 AM 98.6 °F - 48.2 °F 18% 29.74 in - WNW 15.0 mph - N/A   Clear
12:00 PM 101 °F - 46 °F 9% 29.73 in 6 mi NW 10.4 mph - -  
12:00 PM 100.4 °F - 46.4 °F 16% 29.71 in - NW 10.4 mph - N/A   Clear
1:00 PM 102.2 °F 101.4 °F 57.2 °F 22% 29.71 in - NNW 11.5 mph - N/A   Clear
2:00 PM 102.2 °F 104.2 °F 62.6 °F 27% 29.68 in - North 13.8 mph - N/A   Clear
3:00 PM 99 °F - 64 °F 23% 29.71 in 6 mi North 18.4 mph - -  
3:00 PM 98.6 °F 101.0 °F 64.4 °F 32% 29.71 in - North 18.4 mph - N/A   Clear
4:00 PM 93.2 °F 93.3 °F 60.8 °F 34% 29.71 in - ENE 17.3 mph - N/A   Clear
5:00 PM 91.4 °F 95.4 °F 68.0 °F 46% 29.71 in - NE 16.1 mph - N/A   Clear
6:00 PM 88 °F - 70 °F 46% 29.75 in 6 mi North 13.8 mph - -  
6:00 PM 87.8 °F 92.6 °F 69.8 °F 55% 29.74 in - North 13.8 mph - N/A   Clear
7:00 PM 87.8 °F 92.6 °F 69.8 °F 55% 29.77 in - ENE 16.1 mph - N/A   Clear
8:00 PM 86.0 °F 89.4 °F 68.0 °F 55% 29.77 in - WNW 13.8 mph - N/A   Clear
9:00 PM 84 °F - 72 °F 58% 29.80 in 6 mi WNW 13.8 mph - -  
9:00 PM 84.2 °F 89.6 °F 71.6 °F 66% 29.80 in - WNW 13.8 mph - N/A   Clear
10:00 PM 82.4 °F 86.3 °F 69.8 °F 66% 29.80 in - WNW 10.4 mph - N/A   Clear
11:00 PM 82.4 °F 86.3 °F 69.8 °F 66% 29.80 in - WNW 6.9 mph - N/A   Clear